Location: Newark
(46.7000°N, 60.6000°W)
Time: 15:14:09
(UTC+00:00)

A-11 Canister half - Pass Details

Date: 31 October 2020
Orbit: 1516 x 1684 km, 47.2° (Epoch: 03 December)

Event Time Altitude Azimuth Distance (km) Brightness Sun altitude
Rises 01:48:27 0° 262° (W) 4,930 12.0 -49.3°
Reaches altitude 10° 01:51:38 10° 262° (W) 3,933 11.4 -49.7°
Enters shadow 01:55:26 27° 264° (W) 2,795 10.4 -50.1°
